Tracking 30160 objects as of 13-Feb-2025
HD Live streaming from Space Station
objects crossing your sky now

DELTA 1 DEB

Track DELTA 1 DEB now!
10-day predictions


NORAD ID: 9042
Int'l Code: 1975-004DG
Perigee: 716.4 km
Apogee: 806.2 km
Inclination: 97.9 °
Period: 99.9 minutes
Semi major axis: 7132 km
RCS: 0.263 m2 (medium)
Launch date: January 22, 1975
Source: United States (US)
Launch site: AIR FORCE WESTERN TEST RANGE (AFWTR)

Note: This is SATELLITE DEBRIS
Your satellite tracking list
Your tracking list is empty




NASA's NSSDC Master Catalog

Two Line Element Set (TLE):
1 09042U 75004DG  25043.93929833  .00000585  00000-0  18859-3 0  9993
2 09042  97.9171  20.7736 0062922 111.9977 248.7914 14.41307855569162
Source of the keplerian elements: AFSPC